Tracking 30258 objects as of 19-Feb-2025
HD Live streaming from Space Station
objects crossing your sky now

ONEWEB-0633

Track ONEWEB-0633 now!
10-day predictions
ONEWEB-0633 is classified as:


NORAD ID: 56074
Int'l Code: 2023-043AE
Perigee: 1,207.2 km
Apogee: 1,210.7 km
Inclination: 87.9 °
Period: 109.5 minutes
Semi major axis: 7579 km
RCS: Unknown
Launch date: March 26, 2023
Source: United Kingdom (UK)
Launch site: SRIHARIKOTA (SRI)
Your satellite tracking list
Your tracking list is empty




NASA's NSSDC Master Catalog

Two Line Element Set (TLE):
1 56074U 23043AE  25050.57941261  .00000093  00000-0  21290-3 0  9990
2 56074  87.9124 355.3096 0002311  82.0575 278.0818 13.15546576 92952
Source of the keplerian elements: AFSPC